DW9442 Weather Reports


Display with metric or nautical units.
time (UTC)temp
F
wind
direction
speed
MPH
gust
MPH
rain 1hr
in
rain 24hr
in
rain mn
in
humidity
%
barometer
mb
20260503054539 54 94 0.0 1.0 0.00 0.00 0.00 74 1020.6
20260503053008 52 41 0.0 1.0 0.00 0.00 0.00 76 1020.6
20260503051530 51 324 0.0 0.0 0.00 0.00 0.00 79 1020.6
20260503050047 50 324 0.0 0.0 0.00 0.00 0.00 80 1020.6
20260503044517 49 325 0.0 0.0 0.00 0.00 0.00 80 1020.7
20260503043052 47 324 1.0 1.0 0.00 0.00 0.00 83 1020.5
20260503041519 48 324 0.0 1.0 0.00 0.00 0.00 82 1020.5
20260503040051 48 325 0.0 1.0 0.00 0.00 0.00 81 1020.5
20260503034521 48 324 0.0 1.0 0.00 0.00 0.00 81 1020.4
20260503033052 48 324 0.0 1.0 0.00 0.00 0.00 80 1020.4
20260503031521 48 288 0.0 1.0 0.00 0.00 0.00 81 1020.5
20260503030053 48 274 0.0 1.0 0.00 0.00 0.00 81 1020.6
20260503024523 48 274 0.0 1.0 0.00 0.00 0.00 80 1020.6
20260503023059 49 273 0.0 1.0 0.00 0.00 0.00 78 1020.6
20260503021527 50 272 1.0 1.0 0.00 0.00 0.00 77 1020.6
20260503020059 49 269 0.0 1.0 0.00 0.00 0.00 79 1020.6
20260503014540 50 269 0.0 1.0 0.00 0.00 0.00 77 1020.6
20260503013057 50 269 0.0 2.0 0.00 0.00 0.00 76 1020.6
20260503011521 50 344 0.0 1.0 0.00 0.00 0.00 77 1020.6
20260503010054 51 344 0.0 1.0 0.00 0.00 0.00 76 1020.6
20260503004526 51 339 0.0 2.0 0.00 0.00 0.00 75 1020.7
20260503003056 51 335 0.0 2.0 0.00 0.00 0.00 75 1020.9
20260503001528 52 340 0.0 1.0 0.00 0.00 0.00 74 1021.0
20260503000051 52 340 1.0 1.0 0.00 0.00 0.00 73 1021.1
20260502234521 52 340 0.0 1.0 0.00 0.00 0.00 74 1021.2
20260502233054 52 340 0.0 0.0 0.00 0.00 0.00 73 1021.3
20260502231525 53 340 0.0 1.0 0.00 0.00 0.00 71 1021.4
20260502230048 53 340 1.0 2.0 0.00 0.00 0.00 70 1021.5
20260502224517 55 331 0.0 1.0 0.00 0.00 0.00 67 1021.5
20260502223049 54 330 0.0 1.0 0.00 0.00 0.00 67 1021.5
20260502221519 55 331 0.0 1.0 0.00 0.00 0.00 66 1021.6
20260502220051 55 331 0.0 1.0 0.00 0.00 0.00 66 1021.5
20260502214519 56 296 0.0 1.0 0.00 0.00 0.00 64 1021.4
20260502213046 55 328 0.0 0.0 0.00 0.00 0.00 65 1021.4
20260502211502 56 328 0.0 1.0 0.00 0.00 0.00 64 1021.4
20260502210038 57 325 0.0 0.0 0.00 0.00 0.00 62 1021.4
20260502204503 57 325 1.0 2.0 0.00 0.00 0.00 61 1021.3
20260502203017 58 352 0.0 2.0 0.00 0.00 0.00 60 1021.4
20260502201556 57 330 0.0 1.0 0.00 0.00 0.00 60 1021.4
20260502200013 58 302 0.0 1.0 0.00 0.00 0.00 58 1021.4
20260502194551 60 302 0.0 1.0 0.00 0.00 0.00 56 1021.2
20260502193013 60 302 1.0 1.0 0.00 0.00 0.00 54 1021.1
20260502191547 61 297 0.0 2.0 0.00 0.00 0.00 53 1021.0
20260502190016 62 296 1.0 1.0 0.00 0.00 0.00 50 1020.9
20260502184555 63 296 1.0 3.0 0.00 0.00 0.00 49 1020.8
20260502183026 65 275 0.0 2.0 0.00 0.00 0.00 47 1020.6
20260502181545 66 250 1.0 5.0 0.00 0.00 0.00 43 1020.5
20260502163038 72 167 3.0 7.0 0.00 0.00 0.00 37 1020.3
20260502161602 72 174 4.0 7.0 0.00 0.00 0.00 37 1020.5
20260502151517 73 146 3.0 8.0 0.00 0.00 0.00 38 1020.9
20260502123030 71 282 1.0 6.0 0.00 0.00 0.00 36 1022.7
20260502121515 70 218 3.0 7.0 0.00 0.00 0.00 38 1023.0
20260502120157 71 212 1.0 5.0 0.00 0.00 0.00 39 1023.2
20260502114549 70 238 2.0 6.0 0.00 0.00 0.00 37 1023.4
20260502113017 69 306 1.0 8.0 0.00 0.00 0.00 38 1023.7
20260502111601 68 313 1.0 6.0 0.00 0.00 0.00 42 1023.9
20260502110040 67 303 4.0 8.0 0.00 0.00 0.00 41 1024.1
20260502104526 67 184 1.0 5.0 0.00 0.00 0.00 43 1024.4
20260502103005 66 319 1.0 5.0 0.00 0.00 0.00 44 1024.6
20260502101623 66 219 1.0 5.0 0.00 0.00 0.00 44 1024.8
20260502091506 62 270 1.0 4.0 0.00 0.00 0.00 51 1025.5
20260502090109 61 98 0.0 4.0 0.00 0.00 0.00 52 1025.8
20260502080108 57 189 2.0 4.0 0.00 0.00 0.00 60 1026.4
20260502071513 54 118 1.0 3.0 0.00 0.00 0.00 66 1026.9
20260502070125 54 262 1.0 3.0 0.00 0.00 0.00 67 1027.0
20260502064548 52 116 0.0 2.0 0.00 0.00 0.00 69 1027.2
20260502063028 51 105 1.0 3.0 0.00 0.00 0.00 70 1027.2